This is the latest recevied weather packets stored in our database for station/object N9CQL. If no packets are shown the sender has not sent any weather packets the latest 10 day(s).
| Time | Temp. | Humidity | Pressure | Rain* | Wind** | Luminosity | Snow |
|---|---|---|---|---|---|---|---|
| 1777925943 | 27.78° C | 39% | 997.7 hPa | 0 mm | - | 111 W/m² | - |
| 1777925641 | 26.67° C | 39% | 998 hPa | 0 mm | - | 683 W/m² | - |
| 1777925338 | 26.11° C | 40% | 998.1 hPa | 0 mm | - | 219 W/m² | - |
| 1777925034 | 26.11° C | 39% | 998.3 hPa | 0 mm | - | 131 W/m² | - |
| 1777924731 | 26.11° C | 38% | 998.1 hPa | 0 mm | - | 124 W/m² | - |
| 1777924426 | 26.67° C | 37% | 998.1 hPa | 0 mm | - | 225 W/m² | - |
| 1777924123 | 26.67° C | 37% | 998.5 hPa | 0 mm | - | 206 W/m² | - |
| 1777923819 | 27.78° C | 34% | 998.4 hPa | 0 mm | - | 148 W/m² | - |
| 1777923515 | 28.33° C | 31% | 998.4 hPa | 0 mm | - | 707 W/m² | - |
| 1777923213 | 28.33° C | 34% | 998.1 hPa | 0 mm | - | 728 W/m² | - |
| 1777922912 | 27.22° C | 34% | 998.3 hPa | 0 mm | - | 706 W/m² | - |
| 1777922609 | 26.67° C | 37% | 998.5 hPa | 0 mm | - | 736 W/m² | - |
| 1777922308 | 26.67° C | 38% | 998.7 hPa | 0 mm | - | 165 W/m² | - |
| 1777922005 | 27.22° C | 35% | 998.8 hPa | 0 mm | - | 722 W/m² | - |
| 1777921700 | 28.33° C | 34% | 998.6 hPa | 0 mm | - | 718 W/m² | - |
| 1777921396 | 28.33° C | 35% | 998.7 hPa | 0 mm | - | 738 W/m² | - |
| 1777921093 | 27.78° C | 33% | 998.6 hPa | 0 mm | - | 718 W/m² | - |
| 1777920790 | 27.78° C | 33% | 998.6 hPa | 0 mm | - | 735 W/m² | - |
| 1777920486 | 27.78° C | 36% | 998.8 hPa | 0 mm | - | 744 W/m² | - |
| 1777920182 | 27.78° C | 34% | 998.8 hPa | 0 mm | - | 740 W/m² | - |
| 1777919878 | 27.78° C | 33% | 998.8 hPa | 0 mm | - | 750 W/m² | - |
| 1777919575 | 27.78° C | 35% | 998.8 hPa | 0 mm | - | 712 W/m² | - |
| 1777919273 | 27.22° C | 33% | 999 hPa | 0 mm | - | 703 W/m² | - |
| 1777918970 | 27.22° C | 33% | 999 hPa | 0 mm | - | 738 W/m² | - |
| 1777918668 | 26.67° C | 36% | 999 hPa | 0 mm | - | 747 W/m² | - |
* Rain latest hour (hover to see other rain measurements)
** Current wind speed in m/s (hover to see current wind gust speed)